Location: Bayshore Village Mobile Home Park
(26.6945°N, 81.8642°W)
Time: 21:40:42
(UTC+00:00)

NOSS 3-2 (C) - Pass Details

Date: 17 June 2021
Orbit: 778 x 1434 km, 63.4° (Epoch: 14 July)

Event Time Altitude Azimuth Distance (km) Brightness Sun altitude
Rises 00:36:35 0° 193° (SSW) 3,241 6.1 -3.6°
Reaches altitude 10° 00:38:59 10° 188° (S) 2,325 5.3 -4.0°
Maximum altitude 00:44:04 51° 113° (ESE) 1,013 3.3 -5.0°
Drops below altitude 10° 00:49:36 10° 39° (NE) 2,532 5.6 -6.1°
Sets 00:52:18 0° 34° (NE) 3,559 6.4 -6.6°
